Tracking 31027 objects as of 19-Jul-2025
HD Live streaming from Space Station
objects crossing your sky now

STARLINK-2150

Track STARLINK-2150 now!
10-day predictions
STARLINK-2150 is classified as:


NORAD ID: 47739
Int'l Code: 2021-017T
Perigee: 553.5 km
Apogee: 555.2 km
Inclination: 53.1 °
Period: 95.6 minutes
Semi major axis: 6925 km
RCS: Unknown
Launch date: March 4, 2021
Source: United States (US)
Launch site: AIR FORCE EASTERN TEST RANGE (AFETR)
Your satellite tracking list
ABS 3
Track 1 satellite(s)




NASA's NSSDC Master Catalog

Two Line Element Set (TLE):
1 47739U 21017T   25199.43402395  .00000112  00000-0  26440-4 0  9991
2 47739  53.0548 198.2351 0001224  68.8608 291.2512 15.06396220242263
Source of the keplerian elements: AFSPC